N1KE EHEH-EDDM

Flight info

Callsign N1KE
Flight time 0h 55m
Altitude 35000
Route VELNI DCT ONUNE DCT GMH DCT DODEN/N0461F330 DCT TABUM DCT BOMBI T104 HAREM/N0441F270 T104 ROKIL ROKIL1A
Aircraft CL60/M-SADE3FGHIJ3J4J7P2RWXY/HB1D1

Departure

Time 2026-04-30 18:46
Airport Eindhoven Airport (EHEH)

Arrival

Time 2026-04-30 19:42
Airport Munich Airport (EDDM)
Time Latitude Longitude Altitude Speed Heading
2026-04-30 18:10 51.45493 5.38488 82 ft 0 kts 18°
2026-04-30 18:37 51.45499 5.38493 81 ft 3 kts 35°
2026-04-30 18:37 51.45522 5.38526 82 ft 5 kts 43°
2026-04-30 18:37 51.45551 5.38562 81 ft 7 kts 33°
2026-04-30 18:38 51.45593 5.38607 81 ft 10 kts 34°
2026-04-30 18:38 51.45662 5.38684 81 ft 12 kts 35°
2026-04-30 18:38 51.45731 5.38760 81 ft 12 kts 34°
2026-04-30 18:38 51.45774 5.38792 81 ft 5 kts 346°
2026-04-30 18:39 51.45806 5.38737 81 ft 4 kts 304°
2026-04-30 18:39 51.45826 5.38690 81 ft 2 kts 304°
2026-04-30 18:39 51.45847 5.38640 81 ft 7 kts 304°
2026-04-30 18:39 51.45888 5.38548 81 ft 12 kts 305°
2026-04-30 18:40 51.45947 5.38417 81 ft 16 kts 305°
2026-04-30 18:40 51.45997 5.38303 81 ft 9 kts 290°
2026-04-30 18:40 51.45978 5.38246 81 ft 7 kts 203°
2026-04-30 18:40 51.45924 5.38191 81 ft 11 kts 214°
2026-04-30 18:41 51.45851 5.38110 81 ft 14 kts 213°
2026-04-30 18:41 51.45758 5.38009 81 ft 16 kts 217°
2026-04-30 18:41 51.45663 5.37900 81 ft 14 kts 214°
2026-04-30 18:41 51.45581 5.37807 81 ft 15 kts 213°
2026-04-30 18:42 51.45479 5.37695 81 ft 20 kts 215°
2026-04-30 18:42 51.45185 5.37366 81 ft 30 kts 214°
2026-04-30 18:42 51.45036 5.37196 81 ft 25 kts 214°
2026-04-30 18:45 51.43935 5.36217 81 ft 11 kts 89°
2026-04-30 18:45 51.43994 5.36310 82 ft 14 kts 35°
2026-04-30 18:45 51.44371 5.36732 82 ft 123 kts 34°
2026-04-30 18:46 51.45311 5.37755 412 ft 183 kts 37°
2026-04-30 18:46 51.46314 5.38809 1137 ft 162 kts 41°
2026-04-30 18:46 51.47299 5.39914 1775 ft 188 kts 44°
2026-04-30 18:46 51.48409 5.41185 2720 ft 209 kts 42°
2026-04-30 18:47 51.49671 5.42619 3554 ft 232 kts 41°
2026-04-30 18:47 51.50967 5.44113 4382 ft 230 kts 46°
2026-04-30 18:47 51.51822 5.46108 5148 ft 218 kts 82°
2026-04-30 18:47 51.51685 5.48519 5894 ft 219 kts 108°
2026-04-30 18:48 51.51213 5.50848 6233 ft 220 kts 108°
2026-04-30 18:48 51.50736 5.53209 6381 ft 235 kts 108°
2026-04-30 18:48 51.50229 5.55797 7679 ft 246 kts 107°
2026-04-30 18:48 51.49770 5.58235 9482 ft 233 kts 106°
2026-04-30 18:49 51.49302 5.60799 10472 ft 252 kts 105°
2026-04-30 18:49 51.48818 5.63565 11528 ft 269 kts 105°
2026-04-30 18:49 51.48499 5.66544 12713 ft 279 kts 90°
2026-04-30 18:49 51.48680 5.69650 13956 ft 285 kts 86°
2026-04-30 18:50 51.48534 5.72825 15204 ft 289 kts 102°
2026-04-30 18:50 51.48079 5.76027 15939 ft 310 kts 103°
2026-04-30 18:50 51.47586 5.79516 16542 ft 328 kts 102°
2026-04-30 18:50 51.47075 5.83154 17512 ft 336 kts 102°
2026-04-30 18:51 51.46565 5.86801 18568 ft 341 kts 102°
2026-04-30 18:51 51.46040 5.90557 19544 ft 347 kts 102°
2026-04-30 18:51 51.45512 5.94336 20423 ft 353 kts 102°
2026-04-30 18:51 51.44967 5.98246 21318 ft 358 kts 102°
2026-04-30 18:52 51.44419 6.02173 22156 ft 363 kts 102°
2026-04-30 18:52 51.43866 6.06129 22955 ft 369 kts 102°
2026-04-30 18:52 51.43301 6.10174 23746 ft 375 kts 102°
2026-04-30 18:52 51.42732 6.14247 24218 ft 385 kts 102°
2026-04-30 18:53 51.42149 6.18411 24330 ft 387 kts 102°
2026-04-30 18:53 51.41550 6.22679 24322 ft 382 kts 102°
2026-04-30 18:53 51.40960 6.26874 24383 ft 392 kts 102°
2026-04-30 18:53 51.40356 6.31165 25035 ft 398 kts 102°
2026-04-30 18:54 51.39751 6.35451 25970 ft 397 kts 101°
2026-04-30 18:54 51.39145 6.39731 26845 ft 397 kts 101°
2026-04-30 18:54 51.38526 6.44096 27546 ft 401 kts 101°
2026-04-30 18:54 51.37910 6.48431 28164 ft 405 kts 101°
2026-04-30 18:55 51.37282 6.52836 28721 ft 410 kts 101°
2026-04-30 18:55 51.35995 6.61831 29823 ft 418 kts 101°
2026-04-30 18:55 51.35344 6.66367 30352 ft 421 kts 102°
2026-04-30 18:56 51.34032 6.75460 31247 ft 429 kts 102°
2026-04-30 18:56 51.33355 6.80135 31337 ft 435 kts 102°
2026-04-30 18:57 51.31261 6.94508 31332 ft 447 kts 102°
2026-04-30 18:57 51.29832 7.04235 31328 ft 450 kts 102°
2026-04-30 18:58 51.27672 7.18832 31328 ft 451 kts 102°
2026-04-30 18:59 51.25497 7.33400 31342 ft 450 kts 101°
2026-04-30 19:00 51.22565 7.52828 31344 ft 450 kts 101°
2026-04-30 19:01 51.19602 7.72231 31369 ft 454 kts 102°
2026-04-30 19:01 51.18808 7.77123 31605 ft 458 kts 105°
2026-04-30 19:02 51.15640 7.85907 32593 ft 461 kts 128°
2026-04-30 19:02 51.10828 7.92195 34439 ft 444 kts 147°
2026-04-30 19:03 51.05018 7.95628 35201 ft 452 kts 166°
2026-04-30 19:03 50.98746 7.97300 35340 ft 463 kts 168°
2026-04-30 19:04 50.92339 7.99064 35341 ft 468 kts 167°
2026-04-30 19:05 50.79524 8.02868 35359 ft 468 kts 166°
2026-04-30 19:06 50.66797 8.07095 35354 ft 467 kts 164°
2026-04-30 19:06 50.57702 8.11942 35344 ft 459 kts 147°
2026-04-30 19:07 50.49621 8.19968 35352 ft 459 kts 143°
2026-04-30 19:08 50.39350 8.31747 35348 ft 458 kts 141°
2026-04-30 19:09 50.31025 8.39251 35344 ft 459 kts 143°
2026-04-30 19:09 50.26165 8.45484 35348 ft 452 kts 129°
2026-04-30 19:10 50.17590 8.59929 35354 ft 453 kts 128°
2026-04-30 19:11 50.11177 8.70706 35349 ft 453 kts 129°
2026-04-30 19:12 50.06880 8.77907 35351 ft 453 kts 128°
2026-04-30 19:12 50.02325 8.84770 35340 ft 457 kts 133°
2026-04-30 19:13 49.92874 8.98073 35335 ft 457 kts 133°
2026-04-30 19:14 49.88173 9.04673 35332 ft 457 kts 133°
2026-04-30 19:14 49.83437 9.11307 35331 ft 458 kts 133°
2026-04-30 19:15 49.78883 9.17672 35341 ft 459 kts 133°
2026-04-30 19:15 49.75322 9.22640 35329 ft 459 kts 133°
2026-04-30 19:16 49.70594 9.29220 35335 ft 459 kts 133°
2026-04-30 19:17 49.63486 9.39081 35332 ft 458 kts 133°
2026-04-30 19:17 49.57007 9.49767 35336 ft 453 kts 125°
2026-04-30 19:18 49.50763 9.60738 35337 ft 454 kts 125°
2026-04-30 19:19 49.46611 9.68003 35336 ft 454 kts 126°
2026-04-30 19:19 49.40478 9.78669 35255 ft 420 kts 126°
2026-04-30 19:20 49.38566 9.81982 34830 ft 409 kts 125°
2026-04-30 19:20 49.36708 9.85201 34097 ft 405 kts 125°
2026-04-30 19:20 49.32998 9.91614 33377 ft 398 kts 125°
2026-04-30 19:21 49.31154 9.94803 33351 ft 404 kts 125°
2026-04-30 19:22 49.23639 10.07732 33339 ft 405 kts 124°
2026-04-30 19:22 49.18005 10.17386 32700 ft 409 kts 125°
2026-04-30 19:23 49.12203 10.27114 30170 ft 414 kts 127°
2026-04-30 19:24 49.08297 10.33389 29250 ft 391 kts 126°
2026-04-30 19:24 49.06473 10.36307 29227 ft 372 kts 126°
2026-04-30 19:24 49.02976 10.41917 28446 ft 363 kts 126°
2026-04-30 19:25 48.97762 10.50269 26491 ft 360 kts 126°
2026-04-30 19:26 48.94327 10.55747 25284 ft 356 kts 126°
2026-04-30 19:26 48.90970 10.61088 24204 ft 349 kts 126°
2026-04-30 19:26 48.89280 10.63774 23582 ft 344 kts 126°
2026-04-30 19:27 48.86011 10.68945 22082 ft 339 kts 127°
2026-04-30 19:27 48.82758 10.74071 20583 ft 333 kts 127°
2026-04-30 19:28 48.81157 10.76591 19845 ft 330 kts 128°
2026-04-30 19:28 48.77988 10.81572 18403 ft 325 kts 128°
2026-04-30 19:29 48.74894 10.86428 17229 ft 315 kts 128°
2026-04-30 19:29 48.73376 10.88812 16808 ft 317 kts 128°
2026-04-30 19:30 48.68788 10.95998 15432 ft 311 kts 128°
2026-04-30 19:30 48.65808 11.00655 14556 ft 306 kts 129°
2026-04-30 19:31 48.62876 11.05230 13700 ft 300 kts 129°
2026-04-30 19:31 48.61415 11.07505 13267 ft 298 kts 129°
2026-04-30 19:31 48.58549 11.11966 12435 ft 293 kts 129°
2026-04-30 19:32 48.57128 11.14175 12021 ft 290 kts 129°
2026-04-30 19:32 48.55735 11.16338 11618 ft 287 kts 129°
2026-04-30 19:32 48.54347 11.18492 11209 ft 285 kts 130°
2026-04-30 19:32 48.52968 11.20631 10815 ft 282 kts 130°
2026-04-30 19:33 48.51608 11.22737 10423 ft 279 kts 130°
2026-04-30 19:33 48.50253 11.24836 10024 ft 279 kts 130°
2026-04-30 19:33 48.48896 11.26936 9636 ft 278 kts 130°
2026-04-30 19:33 48.47550 11.29018 9220 ft 277 kts 130°
2026-04-30 19:34 48.46200 11.31103 8713 ft 278 kts 130°
2026-04-30 19:34 48.44863 11.33167 8217 ft 278 kts 130°
2026-04-30 19:34 48.42200 11.37270 7227 ft 268 kts 131°
2026-04-30 19:35 48.40904 11.39262 6753 ft 258 kts 131°
2026-04-30 19:35 48.39682 11.41138 6321 ft 249 kts 130°
2026-04-30 19:35 48.38480 11.42984 5794 ft 244 kts 130°
2026-04-30 19:35 48.37300 11.44799 5154 ft 238 kts 130°
2026-04-30 19:36 48.36215 11.46452 4719 ft 209 kts 129°
2026-04-30 19:36 48.35231 11.47954 4394 ft 193 kts 128°
2026-04-30 19:36 48.34393 11.51366 3987 ft 174 kts 85°
2026-04-30 19:37 48.34471 11.53144 3994 ft 164 kts 86°
2026-04-30 19:37 48.34566 11.54810 3982 ft 160 kts 84°
2026-04-30 19:37 48.34686 11.56470 3979 ft 159 kts 83°
2026-04-30 19:37 48.34813 11.58117 3947 ft 155 kts 84°
2026-04-30 19:38 48.34933 11.59631 3730 ft 133 kts 84°
2026-04-30 19:38 48.35036 11.60931 3564 ft 118 kts 83°
2026-04-30 19:38 48.35127 11.62107 3400 ft 111 kts 85°
2026-04-30 19:38 48.35211 11.63246 3256 ft 107 kts 84°
2026-04-30 19:39 48.35281 11.64351 3116 ft 105 kts 88°
2026-04-30 19:39 48.35344 11.65458 2982 ft 106 kts 87°
2026-04-30 19:39 48.35428 11.66579 2849 ft 111 kts 85°
2026-04-30 19:39 48.35532 11.67769 2690 ft 118 kts 85°
2026-04-30 19:40 48.35638 11.68993 2540 ft 117 kts 85°
2026-04-30 19:40 48.35742 11.70209 2374 ft 118 kts 84°
2026-04-30 19:40 48.35852 11.71438 2197 ft 120 kts 83°
2026-04-30 19:40 48.35978 11.72703 2020 ft 125 kts 83°
2026-04-30 19:41 48.36086 11.74012 1872 ft 127 kts 85°
2026-04-30 19:41 48.36180 11.75348 1707 ft 130 kts 85°
2026-04-30 19:41 48.36271 11.76682 1530 ft 126 kts 86°
2026-04-30 19:41 48.36362 11.77907 1470 ft 102 kts 84°
2026-04-30 19:42 48.36420 11.78646 1468 ft 23 kts 90°
2026-04-30 19:42 48.36371 11.78864 1467 ft 24 kts 116°
2026-04-30 19:42 48.36319 11.79039 1467 ft 15 kts 112°
2026-04-30 19:42 48.36275 11.79197 1466 ft 16 kts 111°
2026-04-30 19:43 48.36241 11.79302 1466 ft 10 kts 109°
2026-04-30 19:43 48.36213 11.79397 1466 ft 9 kts 119°
2026-04-30 19:43 48.36164 11.79466 1466 ft 11 kts 168°
2026-04-30 19:44 48.35981 11.79499 1467 ft 11 kts 174°
2026-04-30 19:44 48.35917 11.79509 1467 ft 10 kts 175°
2026-04-30 19:44 48.35834 11.79525 1468 ft 13 kts 174°
2026-04-30 19:44 48.35729 11.79543 1469 ft 16 kts 174°
2026-04-30 19:45 48.35605 11.79566 1470 ft 19 kts 173°
2026-04-30 19:45 48.35472 11.79586 1471 ft 18 kts 174°
2026-04-30 19:45 48.35334 11.79611 1471 ft 19 kts 176°
2026-04-30 19:45 48.35240 11.79626 1472 ft 10 kts 169°
2026-04-30 19:46 48.35158 11.79639 1472 ft 13 kts 175°
2026-04-30 19:46 48.35081 11.79654 1472 ft 6 kts 175°
2026-04-30 19:46 48.35022 11.79664 1473 ft 10 kts 172°
2026-04-30 19:46 48.34938 11.79678 1473 ft 13 kts 168°
2026-04-30 19:47 48.34842 11.79694 1473 ft 12 kts 187°
2026-04-30 19:47 48.34796 11.79642 1473 ft 10 kts 243°
2026-04-30 19:47 48.34783 11.79480 1474 ft 14 kts 262°
2026-04-30 19:47 48.34771 11.79301 1475 ft 20 kts 264°
2026-04-30 19:48 48.34752 11.79075 1476 ft 23 kts 262°
2026-04-30 19:48 48.34733 11.78821 1477 ft 25 kts 263°
2026-04-30 19:48 48.34710 11.78539 1478 ft 28 kts 263°
2026-04-30 19:48 48.34690 11.78266 1479 ft 25 kts 263°
2026-04-30 19:49 48.34671 11.78006 1480 ft 25 kts 263°
2026-04-30 19:49 48.34639 11.77583 1480 ft 17 kts 263°
2026-04-30 19:49 48.34633 11.77453 1481 ft 5 kts 286°
2026-04-30 19:50 48.34673 11.77413 1481 ft 9 kts 356°
2026-04-30 19:50 48.34748 11.77399 1481 ft 10 kts 353°
2026-04-30 19:50 48.34797 11.77337 1481 ft 11 kts 260°
2026-04-30 19:50 48.34789 11.77216 1481 ft 5 kts 262°
2026-04-30 19:51 48.34755 11.77200 1481 ft 7 kts 169°
2026-04-30 19:51 48.34721 11.77206 1481 ft 3 kts 173°
2026-04-30 19:51 48.34699 11.77210 1481 ft 0 kts 173°
2026-04-30 19:52 48.34696 11.77211 1482 ft 0 kts 175°
2026-04-30 19:52 48.34691 11.77209 1482 ft 2 kts 215°
2026-04-30 19:52 48.34689 11.77200 1482 ft 0 kts 265°